Location: Phoenix
(33.4480°N, 112.0730°W)
Time: 19:57:10
(UTC-07:00)

ISS - All Passes

Search period start: 25 October 2014 00:00
Search period end: 04 November 2014 00:00
Orbit: 412 x 416 km, 51.6° (Epoch: 25 October)

Date Brightness Start Highest point End Pass type
(mag) Time Alt. Az. Time Alt. Az. Time Alt. Az.
25 Oct - 10:52:09 10° S 10:54:43 21° SE 10:57:17 10° ENE daylight
25 Oct - 12:28:20 10° W 12:31:16 28° NW 12:34:12 10° NNE daylight
25 Oct - 18:59:47 10° NW 19:03:00 45° NE 19:06:12 10° ESE visible
25 Oct - 20:37:51 10° W 20:39:21 13° SW 20:40:52 10° SSW visible
26 Oct - 10:04:53 10° SE 10:05:41 11° SE 10:06:30 10° ESE daylight
26 Oct - 11:38:45 10° WSW 11:41:59 52° NW 11:45:15 10° NE daylight
26 Oct - 18:10:51 10° NNW 18:13:42 25° NE 18:16:31 10° E visible
26 Oct - 19:47:32 10° WNW 19:50:18 24° SW 19:53:03 10° S visible
27 Oct - 10:49:27 10° SW 10:52:45 75° SE 10:56:04 10° NE daylight
27 Oct - 12:28:14 10° WNW 12:29:47 13° NNW 12:31:20 10° N daylight
27 Oct - 17:22:08 10° N 17:24:16 16° NNE 17:26:24 10° ENE daylight
27 Oct - 18:57:55 10° WNW 19:01:09 50° SW 19:04:22 10° SSE visible
28 Oct - 10:00:30 10° SSW 10:03:33 35° SE 10:06:36 10° ENE daylight
28 Oct - 11:37:47 10° W 11:40:17 20° NW 11:42:48 10° NNE daylight
28 Oct - 16:34:08 10° NNE 16:34:44 10° NNE 16:35:20 10° NE daylight
28 Oct - 18:08:34 10° NW 18:11:54 77° NE 18:15:13 10° SE visible
29 Oct - 09:12:04 10° S 09:14:22 18° SE 09:16:40 10° E daylight
29 Oct - 10:47:49 10° WSW 10:50:50 33° NW 10:53:53 10° NNE daylight
29 Oct - 17:19:24 10° NNW 17:22:32 38° NE 17:25:40 10° ESE daylight
29 Oct - 18:56:58 10° W 18:58:57 15° SW 19:00:56 10° SSW visible
30 Oct - 09:58:09 10° SW 10:01:26 64° NW 10:04:44 10° NE daylight
30 Oct - 16:30:23 10° NNW 16:33:04 22° NE 16:35:44 10° E daylight
30 Oct - 18:06:48 10° WNW 18:09:44 29° SW 18:12:39 10° SSE visible
31 Oct - 09:08:48 10° SW 09:12:04 60° SE 09:15:20 10° NE daylight
31 Oct - 10:47:08 10° WNW 10:49:00 14° NNW 10:50:52 10° N daylight
31 Oct - 15:41:37 10° N 15:43:28 14° NNE 15:45:19 10° ENE daylight
31 Oct - 17:17:08 10° NW 17:20:25 62° SW 17:23:41 10° SE daylight
01 Nov - 08:19:50 10° SSW 08:22:43 28° SE 08:25:38 10° ENE daylight
01 Nov - 09:56:42 10° W 09:59:23 22° NW 10:02:04 10° NNE daylight
01 Nov - 16:27:42 10° NW 16:31:00 62° NE 16:34:16 10° SE daylight
02 Nov - 07:31:30 10° SSE 07:33:25 15° SE 07:35:19 10° E daylight
02 Nov - 09:06:41 10° WSW 09:09:48 39° NW 09:12:57 10° NNE daylight
02 Nov - 15:38:25 10° NNW 15:41:27 32° NE 15:44:28 10° ESE daylight
02 Nov - 17:15:35 10° W 17:17:56 18° SW 17:20:16 10° S daylight
03 Nov - 08:16:58 10° SW 08:20:16 79° NW 08:23:35 10° NE daylight
03 Nov - 09:56:43 10° NW 09:57:24 11° NNW 09:58:05 10° NNW daylight
03 Nov - 14:49:20 10° NNW 14:51:48 19° NNE 14:54:16 10° E daylight
03 Nov - 16:25:28 10° WNW 16:28:33 36° SW 16:31:36 10° SSE daylight
